Regional Weather Roundup
Issued by NWS Midland/Odessa, TX

Skip options and go directly to product.
Home | Oldest Version | Previous Version | Current Version | All | Text Only | Save Text | Print | Product List | Glossary On

Skip product version selection by date and time.   
295
ASUS44 KMAF 260310
RWRMAF
MIDLAND AREA WEATHER ROUNDUP
NATIONAL WEATHER SERVICE MIDLAND TX
1000 PM CDT FRI JUL 25 2014

...IN SOUTHWEST TEXAS AND SOUTHEAST NEW MEXICO...

CITY           SKY/WX    TMP DP  RH WIND       PRES   REMARKS
ALPINE         CLEAR     83  48  30 SE10      30.15R
ANDREWS        FAIR      87  48  25 SE6       30.03R
ARTESIA        CLEAR     88  46  23 S9        29.98R
BIG SPRING     CLEAR     92  52  25 SE9       30.02R
CARLSBAD       CLEAR     91  36  14 SE12      29.97R
DRYDEN           N/A     93  62  35 E13       29.96R
FORT STOCKTON  CLEAR     87  58  37 SE17G25   30.01R
GUAD PASS      CLEAR     78  39  24 NE14      30.18R
HOBBS          CLEAR     86  41  20 SE8       30.04R
MARFA          CLEAR     79  48  34 E10       30.14R
MIDLAND AIRPK  CLEAR     91  53  27 SE12      30.01R
MIDLAND INTL   CLEAR     90  55  30 SE13      30.00R
ODESSA         CLEAR     90  54  29 S12       30.01R
PECOS          CLEAR     86  47  26 E8        29.95R
PRESIDIO       FAIR      93  51  23 NE3       29.94R
SEMINOLE       CLEAR     85  45  24 SE7       30.03R
SNYDER         CLEAR     89  57  34 SE10      29.99R
WINK           CLEAR     90  48  23 SE9       29.97R
$$
...OTHER STATIONS IN TEXAS...

CITY           SKY/WX    TMP DP  RH WIND       PRES   REMARKS
ABILENE        CLEAR     85  63  47 SE8       29.98R
AMARILLO       CLEAR     86  50  28 S17       29.98R
AUSTIN         PTCLDY    88  70  55 SE12      29.96R
BROWNSVILLE    CLEAR     82  76  81 SE14      29.98R
CORPUS CHRISTI PTCLDY    82  77  84 SE15      29.97R
DALLAS FTW     PTCLDY    91  68  46 S12       29.93R
DEL RIO        CLEAR     91  66  43 SE14G22   29.91R
EL PASO        PTCLDY    93  46  19 S6        29.99R
HOUSTON INT    PTCLDY    84  73  69 S6        29.99R
LUBBOCK        CLEAR     87  47  24 S14       30.01R
SAN ANGELO     PTCLDY    89  59  36 SE10      29.96R
SAN ANTONIO    PTCLDY    87  68  52 S9        29.98R
WACO           CLEAR     87  69  54 SE10      29.96R
WICHITA FALLS  NOT AVBL
$$
...OTHER LOCATIONS IN NEW MEXICO...

CITY           SKY/WX    TMP DP  RH WIND       PRES   REMARKS
ALAMAGORDO     CLEAR     88  41  19 S6        30.02R
ALBUQUERQUE    PTCLDY    90  43  19 S7        30.08R
CANNON AFB     CLEAR     80  53  40 S9        30.04R
CLOVIS         NOT AVBL
HOLLOMAN AFB   CLEAR     91  38  16 N6        29.99R
ROSWELL        CLEAR     88  46  23 S8        29.98R
RUIDOSO        PTCLDY    75  45  33 MISG      30.28R
SANTA FE       CLEAR     82  46  28 N5        30.16R
TRUTH OR CONSE CLEAR     90  39  16 S6        30.05R
TUCUMCARI      CLEAR     91  48  22 S17       29.95R
$$

USA.gov is the U.S. government's official web portal to all federal, state and local government web resources and services.